Stations météo

Publicité
Leucate/Semaphore, France (7666): Température de l'air & dewpoint: 15.07.2019 17:00:00 - 21.07.2019 17:00:00 (CEST)Leucate/Semaphore, France (7666): Vitesse du vent & gusts: 15.07.2019 17:00:00 - 21.07.2019 17:00:00 (CEST)Leucate/Semaphore, France (7666): Direction du vent: 15.07.2019 17:00:00 - 21.07.2019 17:00:00 (CEST)Leucate/Semaphore, France (7666): reduced air pressure: 15.07.2019 17:00:00 - 21.07.2019 17:00:00 (CEST)Leucate/Semaphore, France (7666): visibility: 15.07.2019 17:00:00 - 21.07.2019 17:00:00 (CEST)Leucate/Semaphore, France (7666): Quantités de précipitations: 15.07.2019 17:00:00 - 21.07.2019 17:00:00 (CEST)
Date & Time tt [°C] td [°C] ff [km/h] ff [knt] fx [km/h] fx [knt] dd ppp [hPa] vv [km] rr [mm]
21.07.2019 17:00:00 24,6 19,9 18 10 22 12 S 1019,8 - 0,0
21.07.2019 16:00:00 25,4 20,4 15 8 18 10 SSE 1020,2 - 0,0
21.07.2019 15:00:00 25,0 19,4 13 7 18 10 SE 1020,3 - 0,0
21.07.2019 14:00:00 24,7 20,0 10 6 19 10 SE 1020,7 15 0,0
21.07.2019 13:00:00 24,5 21,0 11 6 23 13 SE 1020,8 - 0,0
21.07.2019 12:00:00 24,2 19,5 7 4 16 9 ENE 1020,8 - 0,0
21.07.2019 11:00:00 24,8 19,2 7 4 12 7 NE 1020,6 - 0,0
21.07.2019 10:00:00 23,9 19,8 8 4 13 7 N 1020,7 - 0,0
21.07.2019 09:00:00 22,6 19,4 6 3 14 8 NNW 1020,6 - 0,0
21.07.2019 08:00:00 21,9 19,3 12 7 18 10 NNW 1020,7 - 0,0
21.07.2019 07:00:00 21,1 18,5 6 4 15 8 NW 1020,0 - 0,0
21.07.2019 06:00:00 21,3 18,9 10 5 14 8 N 1019,6 - 0,0
21.07.2019 05:00:00 21,3 18,5 5 3 11 6 NNW 1019,6 - 0,0
21.07.2019 04:00:00 21,6 18,8 8 4 11 6 N 1019,4 - 0,0
21.07.2019 03:00:00 22,1 19,3 7 4 11 6 NNW 1019,5 - 0,0
21.07.2019 02:00:00 22,1 19,1 8 5 13 7 NNW 1019,8 - 0,0
21.07.2019 01:00:00 22,1 19,3 10 5 15 8 N 1019,5 - 0,0
21.07.2019 00:00:00 22,4 18,8 11 6 19 10 N 1019,2 - 0,0
20.07.2019 23:00:00 21,8 19,2 15 8 22 12 N 1018,9 - 0,0
20.07.2019 22:00:00 21,8 19,7 13 7 23 12 N 1018,3 - 0,0
20.07.2019 21:00:00 22,5 20,6 8 5 21 11 SE 1017,7 - 0,0
20.07.2019 20:00:00 22,8 20,3 9 5 17 9 NNE 1017,5 - 0,0
20.07.2019 19:00:00 23,1 20,1 9 5 18 10 NE 1017,3 - 0,0
20.07.2019 18:00:00 23,9 19,8 9 5 31 17 NE 1017,1 - 0,0
20.07.2019 17:00:00 23,5 20,0 22 12 35 19 ESE 1016,7 - 0,0
20.07.2019 16:00:00 23,4 20,0 29 16 42 23 ESE 1016,9 - 0,0
20.07.2019 15:00:00 23,4 20,0 33 18 45 25 ESE 1016,5 - 0,0
20.07.2019 14:00:00 23,2 20,3 38 20 48 26 ESE 1016,3 10 0,0
20.07.2019 13:00:00 22,9 20,4 34 18 51 28 ESE 1016,5 - 0,0
20.07.2019 12:00:00 22,4 20,1 29 16 44 24 E 1016,3 - 0,0
20.07.2019 11:00:00 23,0 21,3 26 14 43 23 E 1016,3 10 0,4
20.07.2019 10:00:00 22,4 20,1 24 13 41 22 SE 1015,6 - 0,0
20.07.2019 09:00:00 22,7 21,5 40 22 50 27 SE 1014,1 - 0,0
20.07.2019 08:00:00 22,4 21,2 17 9 36 20 SSE 1014,6 15 0,0
20.07.2019 07:00:00 22,5 21,1 21 12 34 19 ESE 1013,6 - 0,0
20.07.2019 06:00:00 22,6 21,4 19 11 26 14 E 1013,3 - 0,0
20.07.2019 05:00:00 22,6 21,2 9 5 23 12 ESE 1013,5 18 0,0
20.07.2019 04:00:00 22,7 21,2 6 3 14 7 E 1013,4 - 0,0
20.07.2019 03:00:00 22,3 20,6 3 2 11 6 NE 1013,4 - 0,0
20.07.2019 02:00:00 22,2 20,7 3 2 14 8 NNE 1013,4 - 0,0
20.07.2019 01:00:00 22,3 19,8 9 5 13 7 NNW 1013,8 - 0,0
20.07.2019 00:00:00 23,1 20,1 4 2 14 7 E 1013,9 - 0,0
19.07.2019 23:00:00 23,3 20,1 9 5 21 11 S 1013,9 - 0,0
19.07.2019 22:00:00 23,4 19,3 13 7 25 13 S 1013,7 - 0,0
19.07.2019 21:00:00 23,4 19,1 20 11 36 19 S 1013,6 - 0,0
19.07.2019 20:00:00 23,8 18,0 29 16 37 20 SSE 1013,6 - 0,0
19.07.2019 19:00:00 24,4 17,1 29 15 36 19 SSE 1013,7 - 0,0
19.07.2019 18:00:00 24,6 17,6 23 12 34 18 SSE 1014,3 - 0,0
19.07.2019 17:00:00 24,6 17,6 23 13 29 16 SSE 1014,6 18 0,0
19.07.2019 16:00:00 24,8 17,8 21 11 26 14 SSE 1014,9 - 0,0
19.07.2019 15:00:00 25,1 17,8 19 10 23 12 SE 1015,3 - 0,0
19.07.2019 14:00:00 26,4 18,0 13 7 17 9 SE 1015,8 25 0,0
19.07.2019 13:00:00 25,4 15,4 14 8 18 10 E 1016,0 - 0,0
19.07.2019 12:00:00 26,4 15,4 7 4 24 13 NNE 1016,3 - 0,0
19.07.2019 11:00:00 27,6 13,5 15 8 30 16 N 1016,4 25 0,0
19.07.2019 10:00:00 26,4 13,2 18 10 34 19 NW 1016,6 - 0,0
19.07.2019 09:00:00 24,8 13,0 16 8 31 17 NNW 1016,5 - 0,0
19.07.2019 08:00:00 23,3 12,9 9 5 34 18 WNW 1016,4 25 0,0
19.07.2019 07:00:00 21,9 12,7 17 9 34 19 NW 1016,2 - 0,0
19.07.2019 06:00:00 21,4 12,8 9 5 37 20 NNW 1016,3 - 0,0
19.07.2019 05:00:00 21,5 12,6 19 10 39 21 NW 1015,8 - 0,0
19.07.2019 04:00:00 22,2 12,4 19 10 37 20 NW 1015,9 - 0,0
19.07.2019 03:00:00 23,0 11,7 13 7 28 15 NW 1015,9 - 0,0
19.07.2019 02:00:00 23,4 11,4 12 6 34 18 NW 1016,0 - 0,0
19.07.2019 01:00:00 23,8 11,5 17 9 40 22 NW 1015,5 - 0,0
19.07.2019 00:00:00 24,0 12,0 15 8 29 16 NW 1015,6 - 0,0
18.07.2019 23:00:00 24,6 12,2 15 8 41 22 NW 1015,4 - 0,0
18.07.2019 22:00:00 25,4 10,8 19 10 50 27 NW 1014,5 - 0,0
18.07.2019 21:00:00 26,4 10,5 29 16 56 30 NW 1014,0 - 0,0
18.07.2019 20:00:00 27,4 10,6 28 15 64 35 NW 1013,8 - 0,0
18.07.2019 19:00:00 28,0 10,2 29 16 63 34 NW 1013,5 - 0,0
18.07.2019 18:00:00 28,3 10,5 28 15 61 33 NW 1014,0 - 0,0
18.07.2019 17:00:00 28,2 11,7 30 16 68 37 NW 1014,1 20 0,0
18.07.2019 16:00:00 28,4 11,9 29 15 64 34 NW 1014,3 - 0,0
18.07.2019 15:00:00 26,9 12,5 33 18 71 39 NW 1014,1 - 0,0
18.07.2019 14:00:00 26,8 12,8 33 18 73 40 NW 1014,0 18 0,0
18.07.2019 13:00:00 26,5 12,9 36 20 80 43 NW 1014,2 - 0,0
18.07.2019 12:00:00 25,2 12,1 43 23 80 43 NW 1013,9 - 0,0
18.07.2019 11:00:00 24,9 12,5 44 24 82 45 NW 1013,5 - 0,0
18.07.2019 10:00:00 23,8 12,4 37 20 77 41 NW 1014,0 - 0,0
18.07.2019 09:00:00 23,0 12,6 35 19 74 40 NW 1014,1 - 0,0
18.07.2019 08:00:00 22,3 13,1 36 19 74 40 NW 1014,1 18 0,0
18.07.2019 07:00:00 22,2 11,3 32 17 61 33 NW 1014,1 - 0,0
18.07.2019 06:00:00 22,4 11,5 31 17 64 35 NW 1013,3 - 0,0
18.07.2019 05:00:00 22,7 11,7 31 17 65 35 NW 1013,3 30 0,0
18.07.2019 04:00:00 23,3 12,0 26 14 60 33 NW 1013,3 - 0,0
18.07.2019 03:00:00 24,1 12,7 28 15 60 33 NW 1013,0 - 0,0
18.07.2019 02:00:00 25,0 13,9 31 17 61 33 NW 1013,0 - 0,0
18.07.2019 01:00:00 25,8 14,6 31 17 61 33 NW 1012,8 - 0,0
18.07.2019 00:00:00 26,5 13,9 26 14 51 27 NW 1012,7 - 0,0
17.07.2019 23:00:00 27,1 13,4 25 14 49 26 WNW 1012,9 - 0,0
17.07.2019 22:00:00 27,9 14,2 24 13 41 22 WNW 1012,6 - 0,0
17.07.2019 21:00:00 29,3 12,3 17 9 35 19 NW 1012,1 - 0,0
17.07.2019 20:00:00 30,9 12,3 18 10 42 23 NW 1011,8 20 0,0
17.07.2019 19:00:00 31,9 11,1 23 12 41 22 NW 1011,4 - 0,0
17.07.2019 18:00:00 27,4 14,1 7 4 40 22 SE 1011,6 - 0,0
17.07.2019 17:00:00 31,6 11,9 22 12 44 24 W 1011,7 20 0,0
17.07.2019 16:00:00 32,2 11,4 19 10 44 24 W 1012,3 - 0,0
17.07.2019 15:00:00 32,6 11,7 16 9 40 22 NNW 1012,4 - 0,0
17.07.2019 14:00:00 31,1 12,0 15 8 28 15 NNW 1012,9 - 0,0
17.07.2019 13:00:00 29,3 10,9 15 8 32 18 NNW 1013,5 - 0,0
17.07.2019 12:00:00 29,3 10,4 17 9 36 19 NNW 1013,6 - 0,0
17.07.2019 11:00:00 28,7 10,8 22 12 39 21 NW 1013,7 20 0,0
17.07.2019 10:00:00 27,6 11,6 19 11 36 19 NW 1014,0 - 0,0
17.07.2019 09:00:00 25,5 12,0 15 8 38 20 NW 1013,9 - 0,0
17.07.2019 08:00:00 24,4 11,4 20 11 37 20 NW 1013,7 - 0,0
17.07.2019 07:00:00 24,3 10,2 20 11 36 19 NW 1013,3 - 0,0
17.07.2019 06:00:00 24,4 9,2 17 9 30 16 NW 1013,1 - 0,0
17.07.2019 05:00:00 24,3 8,3 16 9 26 14 WNW 1013,1 20 0,0
17.07.2019 04:00:00 24,0 8,0 18 10 25 14 WNW 1013,1 - 0,0
17.07.2019 03:00:00 23,9 7,9 16 9 23 12 W 1013,5 - 0,0
17.07.2019 02:00:00 24,2 8,2 19 10 24 13 WNW 1013,6 - 0,0
17.07.2019 01:00:00 24,5 8,4 18 10 23 12 WNW 1013,9 - 0,0
17.07.2019 00:00:00 24,4 8,4 17 9 21 11 WNW 1014,1 - 0,0
16.07.2019 23:00:00 25,5 13,0 15 8 23 12 W 1014,1 - 0,0
16.07.2019 22:00:00 25,7 14,8 11 6 17 9 W 1013,9 - 0,0
16.07.2019 21:00:00 25,5 16,9 13 7 29 16 SW 1013,5 - 0,0
16.07.2019 20:00:00 24,8 17,0 24 13 33 18 S 1013,3 20 0,0
16.07.2019 19:00:00 24,1 16,9 25 14 32 17 S 1013,2 - 0,0
16.07.2019 18:00:00 24,8 17,0 23 13 38 21 S 1013,8 - 0,0
16.07.2019 17:00:00 24,6 17,6 29 16 36 19 S 1014,1 20 0,0
16.07.2019 16:00:00 24,6 18,1 19 10 25 14 SSE 1014,1 - 0,0
16.07.2019 15:00:00 25,8 17,7 17 9 27 15 S 1014,3 - 0,0
16.07.2019 14:00:00 24,9 16,3 16 9 24 13 SSE 1014,6 - 0,0
16.07.2019 13:00:00 27,1 15,5 5 3 22 12 E 1014,8 - 0,0
16.07.2019 12:00:00 28,5 10,2 15 8 29 15 N 1015,0 - 0,0
16.07.2019 11:00:00 26,5 11,8 11 6 27 15 N 1015,1 22 0,0
16.07.2019 10:00:00 27,1 9,9 16 8 28 15 NNW 1015,3 - 0,0
16.07.2019 09:00:00 25,3 9,6 19 10 33 18 NW 1015,4 - 0,0
16.07.2019 08:00:00 23,3 9,7 13 7 24 13 NW 1015,2 - 0,0
16.07.2019 07:00:00 21,2 8,5 18 10 26 14 WNW 1015,0 - 0,0
16.07.2019 06:00:00 21,1 8,4 12 7 27 14 NW 1014,6 - 0,0
16.07.2019 05:00:00 21,3 8,2 17 9 24 13 WNW 1014,7 - 0,0
16.07.2019 04:00:00 22,2 8,3 16 9 31 17 WNW 1014,8 - 0,0
16.07.2019 03:00:00 23,1 8,4 17 9 31 17 WNW 1014,8 - 0,0
16.07.2019 02:00:00 23,7 8,1 13 7 33 18 NW 1014,6 - 0,0
16.07.2019 01:00:00 24,7 7,3 18 10 34 19 NW 1014,5 - 0,0
16.07.2019 00:00:00 25,0 8,0 11 6 33 18 NW 1014,2 - 0,0
15.07.2019 23:00:00 26,3 7,3 16 9 42 23 NW 1013,6 - 0,0
15.07.2019 22:00:00 27,0 6,9 24 13 51 28 NW 1012,6 - 0,0
15.07.2019 21:00:00 28,2 6,9 24 13 55 30 NW 1012,1 - 0,0
15.07.2019 20:00:00 29,4 7,3 28 15 61 33 NW 1011,5 - 0,0
15.07.2019 19:00:00 30,2 6,8 27 15 63 34 NW 1010,8 - 0,0
15.07.2019 18:00:00 30,4 6,9 35 19 68 37 NW 1010,5 - 0,0
15.07.2019 17:00:00 30,6 7,1 31 17 79 43 NW 1010,3 - 0,0

tt = Température de l'air
td = dewpoint
ff = Vitesse du vent
fx = gusts
dd = Direction du vent
ppp = reduced air pressure
vv = visibility
rr = Quantités de précipitations

stations d'obs. à proximité